Time,TemperatureF,DewpointF,PressureIn,WindDirection,WindDirectionDegrees,WindSpeedMPH,WindSpeedGustMPH,Humidity,HourlyPrecipIn,Conditions,Clouds,dailyrainin,SoftwareType,DateUTC
2013-11-14 00:01:00,28.0,18.8,29.73,WNW,292,0.0,0.0,68,0.00,CLR,OVC,0.00,WeatherDisplay:10.37,2013-11-14 05:01:00,
2013-11-14 00:02:00,28.0,18.5,29.72,WNW,292,1.2,1.2,67,0.00,CLR,OVC,0.00,WeatherDisplay:10.37,2013-11-14 05:02:00,
2013-11-14 00:07:00,28.0,19.5,29.72,WNW,292,0.0,0.0,70,0.00,CLR,OVC,0.00,WeatherDisplay:10.37,2013-11-14 05:07:00,
2013-11-14 00:12:00,27.0,17.8,29.72,WNW,292,1.2,1.2,68,0.00,CLR,OVC,0.00,WeatherDisplay:10.37,2013-11-14 05:12:00,
2013-11-14 00:17:00,27.0,18.5,29.72,West,270,0.0,0.0,70,0.00,CLR,OVC,0.00,WeatherDisplay:10.37,2013-11-14 05:17:00,
2013-11-14 00:22:00,27.0,18.5,29.72,West,270,1.2,1.2,70,0.00,CLR,OVC,0.00,WeatherDisplay:10.37,2013-11-14 05:22:00,
2013-11-14 00:27:00,27.0,18.8,29.72,West,270,0.0,0.0,71,0.00,CLR,OVC,0.00,WeatherDisplay:10.37,2013-11-14 05:27:00,
2013-11-14 00:32:00,27.0,18.5,29.72,WSW,247,0.0,0.0,70,0.00,CLR,OVC,0.00,WeatherDisplay:10.37,2013-11-14 05:32:00,
2013-11-14 00:37:00,27.0,18.5,29.72,WSW,247,0.0,0.0,70,0.00,CLR,OVC,0.00,WeatherDisplay:10.37,2013-11-14 05:37:00,
2013-11-14 00:42:00,27.0,18.8,29.72,WSW,247,0.0,0.0,71,0.00,CLR,OVC,0.00,WeatherDisplay:10.37,2013-11-14 05:42:00,
2013-11-14 00:47:00,26.0,18.5,29.72,WSW,247,0.0,0.0,73,0.00,CLR,OVC,0.00,WeatherDisplay:10.37,2013-11-14 05:47:00,
2013-11-14 00:52:00,26.0,18.5,29.72,WSW,247,0.0,0.0,73,0.00,CLR,OVC,0.00,WeatherDisplay:10.37,2013-11-14 05:52:00,
2013-11-14 00:57:00,26.0,19.2,29.72,WSW,247,0.0,0.0,75,0.00,CLR,OVC,0.00,WeatherDisplay:10.37,2013-11-14 05:57:00,
2013-11-14 01:02:00,26.0,18.5,29.72,WSW,247,0.0,0.0,73,0.00,CLR,OVC,0.00,WeatherDisplay:10.37,2013-11-14 06:02:00,
2013-11-14 01:07:00,26.0,18.5,29.72,WSW,247,0.0,0.0,73,0.00,CLR,OVC,0.00,WeatherDisplay:10.37,2013-11-14 06:07:00,
2013-11-14 01:12:00,26.0,18.8,29.71,WSW,247,0.0,0.0,74,0.00,CLR,OVC,0.00,WeatherDisplay:10.37,2013-11-14 06:12:00,
2013-11-14 01:17:00,26.0,18.8,29.71,WNW,292,0.0,0.0,74,0.00,CLR,OVC,0.00,WeatherDisplay:10.37,2013-11-14 06:17:00,
2013-11-14 01:22:00,26.0,18.8,29.71,WNW,292,0.0,0.0,74,0.00,CLR,OVC,0.00,WeatherDisplay:10.37,2013-11-14 06:22:00,
2013-11-14 01:27:00,26.0,19.5,29.71,WNW,292,0.0,0.0,76,0.00,CLR,OVC,0.00,WeatherDisplay:10.37,2013-11-14 06:27:00,
2013-11-14 01:32:00,26.0,18.8,29.71,West,270,0.0,0.0,74,0.00,CLR,OVC,0.00,WeatherDisplay:10.37,2013-11-14 06:32:00,
2013-11-14 01:37:00,25.0,18.5,29.71,WNW,292,0.0,0.0,76,0.00,CLR,OVC,0.00,WeatherDisplay:10.37,2013-11-14 06:37:00,
2013-11-14 01:42:00,26.0,18.8,29.71,WNW,292,0.0,0.0,74,0.00,CLR,OVC,0.00,WeatherDisplay:10.37,2013-11-14 06:42:00,
2013-11-14 01:47:00,26.0,18.8,29.71,WNW,292,0.0,0.0,74,0.00,CLR,OVC,0.00,WeatherDisplay:10.37,2013-11-14 06:47:00,
2013-11-14 01:56:00,26.0,18.5,29.71,WNW,292,0.0,0.0,73,0.00,CLR,OVC,0.00,WeatherDisplay:10.37,2013-11-14 06:56:00,
2013-11-14 02:01:00,26.0,19.2,29.71,WNW,292,0.0,0.0,75,0.00,CLR,OVC,0.00,WeatherDisplay:10.37,2013-11-14 07:01:00,
2013-11-14 02:06:00,25.0,18.8,29.71,WNW,292,0.0,0.0,77,0.00,CLR,OVC,0.00,WeatherDisplay:10.37,2013-11-14 07:06:00,
2013-11-14 02:11:00,25.0,19.4,29.71,WNW,292,0.0,0.0,79,0.00,CLR,OVC,0.00,WeatherDisplay:10.37,2013-11-14 07:11:00,
2013-11-14 02:16:00,24.0,18.4,29.70,WNW,292,0.0,0.0,79,0.00,CLR,OVC,0.00,WeatherDisplay:10.37,2013-11-14 07:16:00,
2013-11-14 02:21:00,24.0,18.4,29.70,WNW,292,0.0,0.0,79,0.00,CLR,OVC,0.00,WeatherDisplay:10.37,2013-11-14 07:21:00,
2013-11-14 02:26:00,25.0,19.1,29.70,West,270,0.0,0.0,78,0.00,CLR,OVC,0.00,WeatherDisplay:10.37,2013-11-14 07:26:00,
2013-11-14 02:31:00,25.0,19.4,29.70,West,270,0.0,0.0,79,0.00,CLR,OVC,0.00,WeatherDisplay:10.37,2013-11-14 07:31:00,
2013-11-14 02:36:00,25.0,19.1,29.69,West,270,0.0,0.0,78,0.00,CLR,OVC,0.00,WeatherDisplay:10.37,2013-11-14 07:36:00,
2013-11-14 02:41:00,25.0,19.4,29.69,West,270,0.0,0.0,79,0.00,CLR,OVC,0.00,WeatherDisplay:10.37,2013-11-14 07:41:00,
2013-11-14 02:46:00,25.0,18.5,29.70,West,270,0.0,0.0,76,0.00,CLR,OVC,0.00,WeatherDisplay:10.37,2013-11-14 07:46:00,
2013-11-14 02:51:00,26.0,19.8,29.70,West,270,0.0,0.0,77,0.00,CLR,OVC,0.00,WeatherDisplay:10.37,2013-11-14 07:51:00,
2013-11-14 02:56:00,26.0,19.5,29.70,WSW,247,0.0,0.0,76,0.00,CLR,OVC,0.00,WeatherDisplay:10.37,2013-11-14 07:56:00,
2013-11-14 03:01:00,25.0,18.5,29.70,WSW,247,0.0,0.0,76,0.00,CLR,OVC,0.00,WeatherDisplay:10.37,2013-11-14 08:01:00,
2013-11-14 03:06:00,25.0,18.5,29.69,WSW,247,0.0,0.0,76,0.00,CLR,OVC,0.00,WeatherDisplay:10.37,2013-11-14 08:06:00,
2013-11-14 03:11:00,25.0,18.8,29.69,West,270,0.0,0.0,77,0.00,CLR,OVC,0.00,WeatherDisplay:10.37,2013-11-14 08:11:00,
2013-11-14 03:16:00,25.0,18.8,29.69,WNW,292,0.0,0.0,77,0.00,CLR,OVC,0.00,WeatherDisplay:10.37,2013-11-14 08:16:00,
2013-11-14 03:21:00,25.0,19.1,29.69,WNW,292,0.0,0.0,78,0.00,CLR,OVC,0.00,WeatherDisplay:10.37,2013-11-14 08:21:00,
2013-11-14 03:26:00,25.0,19.4,29.69,WNW,292,0.0,0.0,79,0.00,CLR,OVC,0.00,WeatherDisplay:10.37,2013-11-14 08:26:00,
2013-11-14 03:31:00,24.0,19.0,29.69,WNW,292,0.0,0.0,81,0.00,CLR,OVC,0.00,WeatherDisplay:10.37,2013-11-14 08:31:00,
2013-11-14 03:36:00,24.0,19.3,29.69,WNW,292,0.0,0.0,82,0.00,CLR,OVC,0.00,WeatherDisplay:10.37,2013-11-14 08:36:00,
2013-11-14 03:41:00,24.0,19.3,29.69,West,270,0.0,0.0,82,0.00,CLR,OVC,0.00,WeatherDisplay:10.37,2013-11-14 08:41:00,
2013-11-14 03:46:00,24.0,19.0,29.69,West,270,0.0,0.0,81,0.00,CLR,OVC,0.00,WeatherDisplay:10.37,2013-11-14 08:46:00,
2013-11-14 03:51:00,24.0,19.0,29.69,WNW,292,1.2,0.0,81,0.00,CLR,OVC,0.00,WeatherDisplay:10.37,2013-11-14 08:51:00,
2013-11-14 03:56:00,24.0,19.6,29.69,West,270,0.0,0.0,83,0.00,CLR,OVC,0.00,WeatherDisplay:10.37,2013-11-14 08:56:00,
2013-11-14 04:01:00,25.0,20.3,29.68,WNW,292,0.0,0.0,82,0.00,CLR,OVC,0.00,WeatherDisplay:10.37,2013-11-14 09:01:00,
2013-11-14 04:06:00,25.0,20.6,29.68,West,270,0.0,0.0,83,0.00,CLR,OVC,0.00,WeatherDisplay:10.37,2013-11-14 09:06:00,
2013-11-14 04:11:00,25.0,20.0,29.68,WNW,292,0.0,0.1,81,0.00,CLR,OVC,0.00,WeatherDisplay:10.37,2013-11-14 09:11:00,
2013-11-14 04:16:00,25.0,20.0,29.68,WNW,292,0.0,0.0,81,0.00,CLR,OVC,0.00,WeatherDisplay:10.37,2013-11-14 09:16:00,
2013-11-14 04:21:00,25.0,20.0,29.69,West,270,0.0,0.0,81,0.00,CLR,OVC,0.00,WeatherDisplay:10.37,2013-11-14 09:21:00,
2013-11-14 04:26:00,25.0,20.0,29.69,West,270,0.0,0.0,81,0.00,CLR,OVC,0.00,WeatherDisplay:10.37,2013-11-14 09:26:00,
2013-11-14 04:31:00,25.0,19.7,29.69,West,270,0.0,0.0,80,0.00,CLR,OVC,0.00,WeatherDisplay:10.37,2013-11-14 09:31:00,
2013-11-14 04:36:00,25.0,20.0,29.69,West,270,0.0,0.0,81,0.00,CLR,OVC,0.00,WeatherDisplay:10.37,2013-11-14 09:36:00,
2013-11-14 04:41:00,25.0,19.4,29.69,West,270,0.0,0.1,79,0.00,CLR,OVC,0.00,WeatherDisplay:10.37,2013-11-14 09:41:00,
2013-11-14 04:46:00,25.0,19.4,29.69,SW,225,0.0,0.1,79,0.00,CLR,OVC,0.00,WeatherDisplay:10.37,2013-11-14 09:46:00,
2013-11-14 04:51:00,26.0,20.1,29.68,West,270,0.0,0.0,78,0.00,CLR,OVC,0.00,WeatherDisplay:10.37,2013-11-14 09:51:00,
2013-11-14 04:56:00,26.0,20.1,29.68,WSW,247,0.0,0.0,78,0.00,CLR,OVC,0.00,WeatherDisplay:10.37,2013-11-14 09:56:00,
2013-11-14 05:01:00,26.0,20.1,29.69,WSW,247,1.2,1.2,78,0.00,CLR,OVC,0.00,WeatherDisplay:10.37,2013-11-14 10:01:00,
2013-11-14 05:07:00,25.0,19.4,29.69,WSW,247,0.0,0.0,79,0.00,CLR,OVC,0.00,WeatherDisplay:10.37,2013-11-14 10:07:00,
2013-11-14 05:12:00,25.0,19.7,29.69,WSW,247,0.0,0.0,80,0.00,CLR,OVC,0.00,WeatherDisplay:10.37,2013-11-14 10:12:00,
2013-11-14 05:17:00,25.0,19.7,29.69,WSW,247,0.0,0.0,80,0.00,CLR,OVC,0.00,WeatherDisplay:10.37,2013-11-14 10:17:00,
2013-11-14 05:22:00,25.0,20.0,29.69,WSW,247,0.0,0.0,81,0.00,CLR,OVC,0.00,WeatherDisplay:10.37,2013-11-14 10:22:00,
2013-11-14 05:27:00,25.0,20.0,29.69,WSW,247,0.0,0.0,81,0.00,CLR,OVC,0.00,WeatherDisplay:10.37,2013-11-14 10:27:00,
2013-11-14 05:32:00,25.0,19.7,29.69,WSW,247,0.0,0.0,80,0.00,CLR,OVC,0.00,WeatherDisplay:10.37,2013-11-14 10:32:00,
2013-11-14 05:37:00,25.0,19.7,29.69,West,270,0.0,0.0,80,0.00,CLR,OVC,0.00,WeatherDisplay:10.37,2013-11-14 10:37:00,
2013-11-14 05:42:00,25.0,20.0,29.70,West,270,0.0,0.0,81,0.00,CLR,OVC,0.00,WeatherDisplay:10.37,2013-11-14 10:42:00,
2013-11-14 05:47:00,25.0,20.6,29.70,West,270,0.0,0.0,83,0.00,CLR,OVC,0.00,WeatherDisplay:10.37,2013-11-14 10:47:00,
2013-11-14 05:52:00,24.0,19.6,29.70,West,270,0.0,0.0,83,0.00,CLR,OVC,0.00,WeatherDisplay:10.37,2013-11-14 10:52:00,
2013-11-14 05:57:00,25.0,20.0,29.70,West,270,1.2,1.2,81,0.00,CLR,OVC,0.00,WeatherDisplay:10.37,2013-11-14 10:57:00,
2013-11-14 06:02:00,25.0,19.7,29.70,West,270,0.0,0.0,80,0.00,CLR,OVC,0.00,WeatherDisplay:10.37,2013-11-14 11:02:00,
2013-11-14 06:07:00,25.0,20.0,29.70,WSW,247,1.2,1.2,81,0.00,CLR,OVC,0.00,WeatherDisplay:10.37,2013-11-14 11:07:00,
2013-11-14 06:12:00,25.0,20.0,29.70,West,270,0.0,0.0,81,0.00,CLR,OVC,0.00,WeatherDisplay:10.37,2013-11-14 11:12:00,
2013-11-14 06:17:00,25.0,20.0,29.70,West,270,0.0,0.0,81,0.00,CLR,OVC,0.00,WeatherDisplay:10.37,2013-11-14 11:17:00,
2013-11-14 06:22:00,25.0,20.0,29.69,West,270,0.0,0.0,81,0.00,CLR,OVC,0.00,WeatherDisplay:10.37,2013-11-14 11:22:00,
2013-11-14 06:27:00,25.0,20.0,29.69,WSW,247,1.2,1.2,81,0.00,CLR,OVC,0.00,WeatherDisplay:10.37,2013-11-14 11:27:00,
2013-11-14 06:32:00,25.0,20.0,29.70,WSW,247,0.0,0.0,81,0.00,CLR,OVC,0.00,WeatherDisplay:10.37,2013-11-14 11:32:00,
2013-11-14 06:37:00,25.0,20.0,29.70,WSW,247,0.0,0.0,81,0.00,CLR,OVC,0.00,WeatherDisplay:10.37,2013-11-14 11:37:00,
2013-11-14 06:42:00,25.0,20.3,29.70,West,270,0.0,0.0,82,0.00,CLR,OVC,0.00,WeatherDisplay:10.37,2013-11-14 11:42:00,
2013-11-14 06:47:00,25.0,20.0,29.70,West,270,0.0,0.0,81,0.00,CLR,OVC,0.00,WeatherDisplay:10.37,2013-11-14 11:47:00,
2013-11-14 06:52:00,25.0,20.0,29.70,West,270,0.0,0.0,81,0.00,CLR,OVC,0.00,WeatherDisplay:10.37,2013-11-14 11:52:00,
2013-11-14 06:57:00,25.0,20.0,29.70,West,270,0.0,0.0,81,0.00,CLR,OVC,0.00,WeatherDisplay:10.37,2013-11-14 11:57:00,
2013-11-14 07:02:00,26.0,20.7,29.70,WSW,247,0.0,0.0,80,0.00,CLR,OVC,0.00,WeatherDisplay:10.37,2013-11-14 12:02:00,
2013-11-14 07:07:00,25.0,20.0,29.70,WSW,247,0.0,0.0,81,0.00,CLR,OVC,0.00,WeatherDisplay:10.37,2013-11-14 12:07:00,
2013-11-14 07:12:00,25.0,20.0,29.71,WSW,247,0.0,0.0,81,0.00,CLR,OVC,0.00,WeatherDisplay:10.37,2013-11-14 12:12:00,
2013-11-14 07:17:00,25.0,20.0,29.71,WSW,247,0.0,0.0,81,0.00,CLR,OVC,0.00,WeatherDisplay:10.37,2013-11-14 12:17:00,
2013-11-14 07:22:00,25.0,20.0,29.71,WSW,247,0.0,0.0,81,0.00,CLR,OVC,0.00,WeatherDisplay:10.37,2013-11-14 12:22:00,
2013-11-14 07:27:00,25.0,20.3,29.71,WSW,247,0.0,0.0,82,0.00,CLR,OVC,0.00,WeatherDisplay:10.37,2013-11-14 12:27:00,
2013-11-14 07:32:00,25.0,20.0,29.71,WSW,247,0.0,0.0,81,0.00,CLR,OVC,0.00,WeatherDisplay:10.37,2013-11-14 12:32:00,
2013-11-14 07:37:00,25.0,20.3,29.71,WSW,247,0.0,0.0,82,0.00,CLR,OVC,0.00,WeatherDisplay:10.37,2013-11-14 12:37:00,
2013-11-14 07:42:00,26.0,21.3,29.71,WSW,247,0.0,0.0,82,0.00,CLR,OVC,0.00,WeatherDisplay:10.37,2013-11-14 12:42:00,
2013-11-14 07:47:00,26.0,21.0,29.71,WSW,247,0.0,0.0,81,0.00,CLR,OVC,0.00,WeatherDisplay:10.37,2013-11-14 12:47:00,
2013-11-14 07:52:00,26.0,20.7,29.71,WSW,247,0.0,0.0,80,0.00,CLR,OVC,0.00,WeatherDisplay:10.37,2013-11-14 12:52:00,
2013-11-14 07:57:00,27.0,21.4,29.71,SW,225,1.2,0.0,79,0.00,CLR,OVC,0.00,WeatherDisplay:10.37,2013-11-14 12:57:00,
2013-11-14 08:02:00,27.0,21.1,29.71,SW,225,0.0,0.0,78,0.00,CLR,OVC,0.00,WeatherDisplay:10.37,2013-11-14 13:02:00,
2013-11-14 08:07:00,27.0,20.7,29.71,West,270,0.0,0.0,77,0.00,CLR,OVC,0.00,WeatherDisplay:10.37,2013-11-14 13:07:00,
2013-11-14 08:12:00,28.0,21.4,29.71,WSW,247,0.0,0.0,76,0.00,CLR,OVC,0.00,WeatherDisplay:10.37,2013-11-14 13:12:00,
2013-11-14 08:17:00,29.0,22.1,29.71,West,270,1.2,0.0,75,0.00,CLR,OVC,0.00,WeatherDisplay:10.37,2013-11-14 13:17:00,
2013-11-14 08:22:00,30.0,22.7,29.71,WSW,247,1.2,0.0,74,0.00,CLR,OVC,0.00,WeatherDisplay:10.37,2013-11-14 13:22:00,
2013-11-14 08:27:00,32.0,24.0,29.71,WSW,247,0.0,0.0,72,0.00,CLR,OVC,0.00,WeatherDisplay:10.37,2013-11-14 13:27:00,
2013-11-14 08:32:00,33.0,23.6,29.71,WSW,247,0.0,0.0,68,0.00,CLR,OVC,0.00,WeatherDisplay:10.37,2013-11-14 13:32:00,
2013-11-14 08:37:00,34.0,23.8,29.71,WSW,247,3.5,3.5,66,0.00,CLR,OVC,0.00,WeatherDisplay:10.37,2013-11-14 13:37:00,
2013-11-14 08:42:00,35.0,23.7,29.71,West,270,2.3,2.3,63,0.00,CLR,OVC,0.00,WeatherDisplay:10.37,2013-11-14 13:42:00,
2013-11-14 08:47:00,36.0,23.8,29.71,West,270,3.5,3.5,61,0.00,CLR,OVC,0.00,WeatherDisplay:10.37,2013-11-14 13:47:00,
2013-11-14 08:52:00,37.0,24.0,29.72,West,270,1.2,1.2,59,0.00,CLR,OVC,0.00,WeatherDisplay:10.37,2013-11-14 13:52:00,
2013-11-14 08:57:00,38.0,24.1,29.72,West,270,2.3,2.3,57,0.00,CLR,OVC,0.00,WeatherDisplay:10.37,2013-11-14 13:57:00,
2013-11-14 09:02:00,39.0,24.6,29.72,West,270,2.3,2.3,56,0.00,CLR,OVC,0.00,WeatherDisplay:10.37,2013-11-14 14:02:00,
2013-11-14 09:07:00,39.0,23.7,29.72,West,270,1.2,1.2,54,0.00,CLR,OVC,0.00,WeatherDisplay:10.37,2013-11-14 14:07:00,
2013-11-14 09:12:00,40.0,23.8,29.71,WSW,247,1.2,1.2,52,0.00,CLR,OVC,0.00,WeatherDisplay:10.37,2013-11-14 14:12:00,
2013-11-14 09:17:00,41.0,24.7,29.71,West,270,3.5,3.5,52,0.00,CLR,OVC,0.00,WeatherDisplay:10.37,2013-11-14 14:17:00,
2013-11-14 09:22:00,41.0,24.2,29.71,West,270,3.5,3.5,51,0.00,CLR,OVC,0.00,WeatherDisplay:10.37,2013-11-14 14:22:00,
2013-11-14 09:27:00,42.0,24.2,29.71,West,270,2.3,2.3,49,0.00,CLR,OVC,0.00,WeatherDisplay:10.37,2013-11-14 14:27:00,
2013-11-14 09:32:00,43.0,24.6,29.71,West,270,3.5,3.5,48,0.00,CLR,OVC,0.00,WeatherDisplay:10.37,2013-11-14 14:32:00,
2013-11-14 09:37:00,43.0,24.1,29.71,West,270,3.5,3.5,47,0.00,CLR,OVC,0.00,WeatherDisplay:10.37,2013-11-14 14:37:00,
2013-11-14 09:42:00,44.0,24.5,29.71,South,180,1.2,1.2,46,0.00,CLR,OVC,0.00,WeatherDisplay:10.37,2013-11-14 14:42:00,
2013-11-14 09:47:00,44.0,24.5,29.71,West,270,5.8,5.8,46,0.00,CLR,OVC,0.00,WeatherDisplay:10.37,2013-11-14 14:47:00,
2013-11-14 09:52:00,45.0,24.4,29.71,SW,225,1.2,1.2,44,0.00,CLR,OVC,0.00,WeatherDisplay:10.37,2013-11-14 14:52:00,
2013-11-14 09:57:00,46.0,24.7,29.71,WNW,292,3.5,3.5,43,0.00,CLR,OVC,0.00,WeatherDisplay:10.37,2013-11-14 14:57:00,
2013-11-14 10:02:00,46.0,24.2,29.71,WNW,292,3.5,3.5,42,0.00,CLR,OVC,0.00,WeatherDisplay:10.37,2013-11-14 15:02:00,
2013-11-14 10:07:00,46.0,23.0,29.71,West,270,3.5,3.5,40,0.00,CLR,OVC,0.00,WeatherDisplay:10.37,2013-11-14 15:07:00,
2013-11-14 10:12:00,47.0,23.9,29.70,West,270,1.0,1.0,40,0.00,CLR,OVC,0.00,WeatherDisplay:10.37,2013-11-14 15:12:00,
2013-11-14 10:17:00,47.0,23.9,29.70,WNW,292,1.2,1.2,40,0.00,CLR,OVC,0.00,WeatherDisplay:10.37,2013-11-14 15:17:00,
2013-11-14 10:22:00,48.0,24.2,29.70,NW,315,2.3,2.3,39,0.00,CLR,OVC,0.00,WeatherDisplay:10.37,2013-11-14 15:22:00,
2013-11-14 10:27:00,48.0,23.6,29.70,West,270,3.5,3.5,38,0.00,CLR,OVC,0.00,WeatherDisplay:10.37,2013-11-14 15:27:00,
2013-11-14 10:32:00,49.0,23.8,29.69,WSW,247,3.5,3.5,37,0.00,CLR,OVC,0.00,WeatherDisplay:10.37,2013-11-14 15:32:00,
2013-11-14 10:37:00,49.0,23.2,29.69,South,180,5.0,5.0,36,0.00,CLR,OVC,0.00,WeatherDisplay:10.37,2013-11-14 15:37:00,
2013-11-14 10:42:00,50.0,23.4,29.69,South,180,3.5,3.5,35,0.00,CLR,OVC,0.00,WeatherDisplay:10.37,2013-11-14 15:42:00,
2013-11-14 10:47:00,50.0,21.3,29.69,NW,315,3.5,3.5,32,0.00,CLR,OVC,0.00,WeatherDisplay:10.37,2013-11-14 15:47:00,
2013-11-14 10:52:00,51.0,22.9,29.69,WSW,247,3.5,3.5,33,0.00,CLR,OVC,0.00,WeatherDisplay:10.37,2013-11-14 15:52:00,
2013-11-14 10:57:00,52.0,23.8,29.69,WSW,247,3.5,3.5,33,0.00,CLR,OVC,0.00,WeatherDisplay:10.37,2013-11-14 15:57:00,
2013-11-14 11:02:00,52.0,23.0,29.68,WNW,292,3.5,3.5,32,0.00,CLR,OVC,0.00,WeatherDisplay:10.37,2013-11-14 16:02:00,
2013-11-14 11:07:00,52.0,24.5,29.68,SSE,157,3.5,3.5,34,0.00,CLR,OVC,0.00,WeatherDisplay:10.37,2013-11-14 16:07:00,
2013-11-14 11:12:00,52.0,23.0,29.68,West,270,5.8,5.8,32,0.00,CLR,OVC,0.00,WeatherDisplay:10.37,2013-11-14 16:12:00,
2013-11-14 11:17:00,52.0,23.8,29.68,WNW,292,1.2,1.2,33,0.00,CLR,OVC,0.00,WeatherDisplay:10.37,2013-11-14 16:17:00,
2013-11-14 11:22:00,53.0,24.6,29.67,WSW,247,4.0,4.0,33,0.00,CLR,OVC,0.00,WeatherDisplay:10.37,2013-11-14 16:22:00,
2013-11-14 11:27:00,52.0,23.8,29.67,WNW,292,8.1,8.1,33,0.00,CLR,OVC,0.00,WeatherDisplay:10.37,2013-11-14 16:27:00,
2013-11-14 11:32:00,53.0,23.1,29.67,NW,315,3.5,3.5,31,0.00,CLR,OVC,0.00,WeatherDisplay:10.37,2013-11-14 16:32:00,
2013-11-14 11:37:00,53.0,23.1,29.67,West,270,9.2,9.2,31,0.00,CLR,OVC,0.00,WeatherDisplay:10.37,2013-11-14 16:37:00,
2013-11-14 11:42:00,53.0,23.1,29.67,WSW,247,3.5,3.5,31,0.00,CLR,OVC,0.00,WeatherDisplay:10.37,2013-11-14 16:42:00,
2013-11-14 11:47:00,54.0,22.4,29.67,SSW,202,1.2,1.2,29,0.00,CLR,OVC,0.00,WeatherDisplay:10.37,2013-11-14 16:47:00,
2013-11-14 11:52:00,54.0,23.2,29.66,West,270,3.5,3.5,30,0.00,CLR,OVC,0.00,WeatherDisplay:10.37,2013-11-14 16:52:00,
2013-11-14 11:57:00,55.0,23.3,29.66,West,270,5.8,5.8,29,0.00,CLR,OVC,0.00,WeatherDisplay:10.37,2013-11-14 16:57:00,
2013-11-14 12:02:00,55.0,23.3,29.65,West,270,3.5,3.5,29,0.00,CLR,OVC,0.00,WeatherDisplay:10.37,2013-11-14 17:02:00,
2013-11-14 12:07:00,55.0,23.3,29.65,West,270,5.8,5.8,29,0.00,CLR,OVC,0.00,WeatherDisplay:10.37,2013-11-14 17:07:00,
2013-11-14 12:12:00,55.0,23.3,29.65,West,270,3.5,3.5,29,0.00,CLR,OVC,0.00,WeatherDisplay:10.37,2013-11-14 17:12:00,
2013-11-14 12:17:00,55.0,23.3,29.65,West,270,5.8,5.8,29,0.00,CLR,OVC,0.00,WeatherDisplay:10.37,2013-11-14 17:17:00,
2013-11-14 12:22:00,55.0,23.3,29.64,NW,315,3.5,3.5,29,0.00,CLR,OVC,0.00,WeatherDisplay:10.37,2013-11-14 17:22:00,
2013-11-14 12:27:00,56.0,24.2,29.64,WSW,247,4.6,4.6,29,0.00,CLR,OVC,0.00,WeatherDisplay:10.37,2013-11-14 17:27:00,
2013-11-14 12:32:00,55.0,22.4,29.65,SW,225,5.8,5.8,28,0.00,CLR,OVC,0.00,WeatherDisplay:10.37,2013-11-14 17:32:00,
2013-11-14 12:37:00,56.0,24.2,29.65,WSW,247,4.0,4.0,29,0.00,CLR,OVC,0.00,WeatherDisplay:10.37,2013-11-14 17:37:00,
2013-11-14 12:42:00,56.0,21.6,29.64,NNW,337,6.9,6.9,26,0.00,CLR,OVC,0.00,WeatherDisplay:10.37,2013-11-14 17:42:00,
2013-11-14 12:47:00,57.0,22.4,29.64,WSW,247,4.0,4.0,26,0.00,CLR,OVC,0.00,WeatherDisplay:10.37,2013-11-14 17:47:00,
2013-11-14 12:52:00,57.0,21.5,29.63,SW,225,3.5,3.5,25,0.00,CLR,OVC,0.00,WeatherDisplay:10.37,2013-11-14 17:52:00,
2013-11-14 12:57:00,57.0,21.5,29.63,SSW,202,5.8,5.8,25,0.00,CLR,OVC,0.00,WeatherDisplay:10.37,2013-11-14 17:57:00,
2013-11-14 13:02:00,58.0,22.3,29.63,SW,225,3.5,3.5,25,0.00,CLR,OVC,0.00,WeatherDisplay:10.37,2013-11-14 18:02:00,
2013-11-14 13:07:00,57.0,20.5,29.63,South,180,9.2,9.2,24,0.00,CLR,OVC,0.00,WeatherDisplay:10.37,2013-11-14 18:07:00,
2013-11-14 13:12:00,57.0,21.5,29.62,WNW,292,3.5,3.5,25,0.00,CLR,OVC,0.00,WeatherDisplay:10.37,2013-11-14 18:12:00,
2013-11-14 13:17:00,58.0,22.3,29.62,West,270,3.0,3.0,25,0.00,CLR,OVC,0.00,WeatherDisplay:10.37,2013-11-14 18:17:00,
2013-11-14 13:22:00,56.0,19.7,29.63,West,270,8.1,8.1,24,0.00,CLR,OVC,0.00,WeatherDisplay:10.37,2013-11-14 18:22:00,
2013-11-14 13:27:00,57.0,22.4,29.63,West,270,4.6,4.6,26,0.00,CLR,OVC,0.00,WeatherDisplay:10.37,2013-11-14 18:27:00,
2013-11-14 13:32:00,58.0,23.3,29.62,WSW,247,2.0,2.0,26,0.00,CLR,OVC,0.00,WeatherDisplay:10.37,2013-11-14 18:32:00,
2013-11-14 13:37:00,58.0,22.3,29.62,West,270,6.9,6.9,25,0.00,CLR,OVC,0.00,WeatherDisplay:10.37,2013-11-14 18:37:00,
2013-11-14 13:42:00,57.0,22.4,29.62,West,270,3.5,3.5,26,0.00,CLR,OVC,0.00,WeatherDisplay:10.37,2013-11-14 18:42:00,
2013-11-14 13:47:00,56.0,21.6,29.62,NNW,337,3.5,3.5,26,0.00,CLR,OVC,0.00,WeatherDisplay:10.37,2013-11-14 18:47:00,
2013-11-14 13:53:00,56.0,21.6,29.61,West,270,1.2,1.2,26,0.00,CLR,OVC,0.00,WeatherDisplay:10.37,2013-11-14 18:53:00,
2013-11-14 13:57:00,57.0,22.4,29.61,West,270,4.6,4.6,26,0.00,CLR,OVC,0.00,WeatherDisplay:10.37,2013-11-14 18:57:00,
2013-11-14 14:03:00,58.0,21.4,29.60,SW,225,2.3,2.3,24,0.00,CLR,OVC,0.00,WeatherDisplay:10.37,2013-11-14 19:03:00,
2013-11-14 14:08:00,58.0,23.3,29.60,West,270,3.5,3.5,26,0.00,CLR,OVC,0.00,WeatherDisplay:10.37,2013-11-14 19:08:00,
2013-11-14 14:13:00,59.0,23.2,29.61,WNW,292,1.2,1.2,25,0.00,CLR,OVC,0.00,WeatherDisplay:10.37,2013-11-14 19:13:00,
2013-11-14 14:18:00,59.0,22.2,29.61,West,270,1.2,1.2,24,0.00,CLR,OVC,0.00,WeatherDisplay:10.37,2013-11-14 19:18:00,
2013-11-14 14:23:00,60.0,25.0,29.59,West,270,1.2,1.2,26,0.00,CLR,OVC,0.00,WeatherDisplay:10.37,2013-11-14 19:23:00,
2013-11-14 14:28:00,59.0,22.2,29.59,NW,315,3.5,3.5,24,0.00,CLR,OVC,0.00,WeatherDisplay:10.37,2013-11-14 19:28:00,
2013-11-14 14:33:00,60.0,23.1,29.59,West,270,2.3,2.3,24,0.00,CLR,OVC,0.00,WeatherDisplay:10.37,2013-11-14 19:33:00,
2013-11-14 14:38:00,60.0,23.1,29.59,West,270,1.2,1.2,24,0.00,CLR,OVC,0.00,WeatherDisplay:10.37,2013-11-14 19:38:00,
2013-11-14 14:43:00,59.0,22.2,29.60,WNW,292,3.5,3.5,24,0.00,CLR,OVC,0.00,WeatherDisplay:10.37,2013-11-14 19:43:00,
2013-11-14 14:48:00,60.0,24.0,29.60,West,270,2.3,2.3,25,0.00,CLR,OVC,0.00,WeatherDisplay:10.37,2013-11-14 19:48:00,
2013-11-14 14:53:00,60.0,23.1,29.60,WSW,247,3.0,3.0,24,0.00,CLR,OVC,0.00,WeatherDisplay:10.37,2013-11-14 19:53:00,
2013-11-14 14:58:00,59.0,23.2,29.60,WSW,247,3.5,3.5,25,0.00,CLR,OVC,0.00,WeatherDisplay:10.37,2013-11-14 19:58:00,
2013-11-14 15:03:00,59.0,23.2,29.61,West,270,4.6,4.6,25,0.00,CLR,OVC,0.00,WeatherDisplay:10.37,2013-11-14 20:03:00,
2013-11-14 15:08:00,58.0,23.3,29.61,SSW,202,2.3,2.3,26,0.00,CLR,OVC,0.00,WeatherDisplay:10.37,2013-11-14 20:08:00,
2013-11-14 15:13:00,58.0,23.3,29.61,West,270,1.2,1.2,26,0.00,CLR,OVC,0.00,WeatherDisplay:10.37,2013-11-14 20:13:00,
2013-11-14 15:18:00,58.0,23.3,29.61,West,270,1.2,1.2,26,0.00,CLR,OVC,0.00,WeatherDisplay:10.37,2013-11-14 20:18:00,
2013-11-14 15:23:00,58.0,23.3,29.60,West,270,3.5,3.5,26,0.00,CLR,OVC,0.00,WeatherDisplay:10.37,2013-11-14 20:23:00,
2013-11-14 15:28:00,58.0,22.3,29.60,South,180,1.2,1.2,25,0.00,CLR,OVC,0.00,WeatherDisplay:10.37,2013-11-14 20:28:00,
2013-11-14 15:33:00,58.0,22.3,29.61,South,180,2.0,2.0,25,0.00,CLR,OVC,0.00,WeatherDisplay:10.37,2013-11-14 20:33:00,
2013-11-14 15:38:00,58.0,23.3,29.61,West,270,3.5,3.5,26,0.00,CLR,OVC,0.00,WeatherDisplay:10.37,2013-11-14 20:38:00,
2013-11-14 15:43:00,57.0,22.4,29.60,SSE,157,2.3,2.3,26,0.00,CLR,OVC,0.00,WeatherDisplay:10.37,2013-11-14 20:43:00,
2013-11-14 15:48:00,57.0,23.3,29.60,WSW,247,2.3,2.3,27,0.00,CLR,OVC,0.00,WeatherDisplay:10.37,2013-11-14 20:48:00,
2013-11-14 15:53:00,57.0,24.2,29.60,SSE,157,0.0,0.2,28,0.00,CLR,OVC,0.00,WeatherDisplay:10.37,2013-11-14 20:53:00,
2013-11-14 15:58:00,56.0,23.3,29.60,West,270,2.3,2.3,28,0.00,CLR,OVC,0.00,WeatherDisplay:10.37,2013-11-14 20:58:00,
2013-11-14 16:03:00,56.0,24.2,29.60,West,270,0.0,0.0,29,0.00,CLR,OVC,0.00,WeatherDisplay:10.37,2013-11-14 21:03:00,
2013-11-14 16:08:00,56.0,24.2,29.60,ESE,112,2.3,2.3,29,0.00,CLR,OVC,0.00,WeatherDisplay:10.37,2013-11-14 21:08:00,
2013-11-14 16:13:00,55.0,23.3,29.59,WSW,247,1.2,1.2,29,0.00,CLR,OVC,0.00,WeatherDisplay:10.37,2013-11-14 21:13:00,
2013-11-14 16:18:00,55.0,23.3,29.59,SW,225,2.3,0.0,29,0.00,CLR,OVC,0.00,WeatherDisplay:10.37,2013-11-14 21:18:00,
2013-11-14 16:23:00,54.0,24.0,29.59,SW,225,1.2,1.2,31,0.00,CLR,OVC,0.00,WeatherDisplay:10.37,2013-11-14 21:23:00,
2013-11-14 16:28:00,54.0,24.0,29.59,WSW,247,3.5,3.5,31,0.00,CLR,OVC,0.00,WeatherDisplay:10.37,2013-11-14 21:28:00,
2013-11-14 16:33:00,53.0,23.1,29.59,WSW,247,0.0,0.0,31,0.00,CLR,OVC,0.00,WeatherDisplay:10.37,2013-11-14 21:33:00,
2013-11-14 16:38:00,53.0,23.1,29.59,West,270,0.0,0.0,31,0.00,CLR,OVC,0.00,WeatherDisplay:10.37,2013-11-14 21:38:00,
2013-11-14 16:43:00,52.0,23.8,29.59,West,270,0.0,0.0,33,0.00,CLR,OVC,0.00,WeatherDisplay:10.37,2013-11-14 21:43:00,
2013-11-14 16:48:00,52.0,23.8,29.59,West,270,0.0,0.0,33,0.00,CLR,OVC,0.00,WeatherDisplay:10.37,2013-11-14 21:48:00,
2013-11-14 16:53:00,51.0,22.1,29.59,WSW,247,0.0,0.0,32,0.00,CLR,OVC,0.00,WeatherDisplay:10.37,2013-11-14 21:53:00,
2013-11-14 16:58:00,50.0,22.0,29.59,SW,225,0.0,0.0,33,0.00,CLR,OVC,0.00,WeatherDisplay:10.37,2013-11-14 21:58:00,
2013-11-14 17:03:00,50.0,22.0,29.59,SW,225,0.0,0.0,33,0.00,CLR,OVC,0.00,WeatherDisplay:10.37,2013-11-14 22:03:00,
2013-11-14 17:08:00,49.0,21.8,29.59,SSW,202,0.0,0.0,34,0.00,CLR,OVC,0.00,WeatherDisplay:10.37,2013-11-14 22:08:00,
2013-11-14 17:13:00,49.0,22.5,29.59,SSW,202,0.0,0.0,35,0.00,CLR,OVC,0.00,WeatherDisplay:10.37,2013-11-14 22:13:00,
2013-11-14 17:18:00,48.0,22.9,29.59,SSW,202,0.0,0.0,37,0.00,CLR,OVC,0.00,WeatherDisplay:10.37,2013-11-14 22:18:00,
2013-11-14 17:23:00,47.0,22.7,29.59,SSW,202,0.0,0.0,38,0.00,CLR,OVC,0.00,WeatherDisplay:10.37,2013-11-14 22:23:00,
2013-11-14 17:28:00,47.0,22.7,29.59,SSW,202,0.0,0.0,38,0.00,CLR,OVC,0.00,WeatherDisplay:10.37,2013-11-14 22:28:00,
2013-11-14 17:33:00,46.0,23.0,29.59,SSW,202,0.0,0.0,40,0.00,CLR,OVC,0.00,WeatherDisplay:10.37,2013-11-14 22:33:00,
2013-11-14 17:38:00,46.0,23.0,29.59,SSW,202,0.0,0.0,40,0.00,CLR,OVC,0.00,WeatherDisplay:10.37,2013-11-14 22:38:00,
2013-11-14 17:43:00,45.0,22.1,29.59,SSW,202,0.0,0.0,40,0.00,CLR,OVC,0.00,WeatherDisplay:10.37,2013-11-14 22:43:00,
2013-11-14 17:48:00,45.0,22.7,29.59,SSW,202,0.0,0.0,41,0.00,CLR,OVC,0.00,WeatherDisplay:10.37,2013-11-14 22:48:00,
2013-11-14 17:53:00,45.0,22.7,29.59,South,180,0.0,0.0,41,0.00,CLR,OVC,0.00,WeatherDisplay:10.37,2013-11-14 22:53:00,
2013-11-14 17:58:00,44.0,22.9,29.59,South,180,0.0,0.0,43,0.00,CLR,OVC,0.00,WeatherDisplay:10.37,2013-11-14 22:58:00,
2013-11-14 18:03:00,44.0,22.9,29.59,South,180,0.0,0.0,43,0.00,CLR,OVC,0.00,WeatherDisplay:10.37,2013-11-14 23:03:00,
2013-11-14 18:08:00,44.0,22.9,29.59,South,180,0.0,0.0,43,0.00,CLR,OVC,0.00,WeatherDisplay:10.37,2013-11-14 23:08:00,
2013-11-14 18:13:00,43.0,21.4,29.59,South,180,0.0,0.0,42,0.00,CLR,OVC,0.00,WeatherDisplay:10.37,2013-11-14 23:13:00,
2013-11-14 18:18:00,43.0,22.5,29.59,South,180,0.0,0.0,44,0.00,CLR,OVC,0.00,WeatherDisplay:10.37,2013-11-14 23:18:00,
2013-11-14 18:23:00,43.0,22.5,29.59,South,180,0.0,0.0,44,0.00,CLR,OVC,0.00,WeatherDisplay:10.37,2013-11-14 23:23:00,
2013-11-14 18:28:00,43.0,23.1,29.59,South,180,0.0,0.0,45,0.00,CLR,OVC,0.00,WeatherDisplay:10.37,2013-11-14 23:28:00,
2013-11-14 18:33:00,42.0,22.2,29.59,South,180,0.0,0.0,45,0.00,CLR,OVC,0.00,WeatherDisplay:10.37,2013-11-14 23:33:00,
2013-11-14 18:38:00,42.0,22.2,29.59,South,180,0.0,0.0,45,0.00,CLR,OVC,0.00,WeatherDisplay:10.37,2013-11-14 23:38:00,
2013-11-14 18:43:00,42.0,22.7,29.59,South,180,0.0,0.0,46,0.00,CLR,OVC,0.00,WeatherDisplay:10.37,2013-11-14 23:43:00,
2013-11-14 18:48:00,42.0,23.2,29.59,South,180,0.0,0.0,47,0.00,CLR,OVC,0.00,WeatherDisplay:10.37,2013-11-14 23:48:00,
2013-11-14 18:53:00,41.0,22.3,29.58,South,180,0.0,0.0,47,0.00,CLR,OVC,0.00,WeatherDisplay:10.37,2013-11-14 23:53:00,
2013-11-14 18:58:00,41.0,22.3,29.58,South,180,0.0,0.0,47,0.00,CLR,OVC,0.00,WeatherDisplay:10.37,2013-11-14 23:58:00,
2013-11-14 19:03:00,41.0,22.8,29.59,South,180,0.0,0.0,48,0.00,CLR,OVC,0.00,WeatherDisplay:10.37,2013-11-15 00:03:00,
2013-11-14 19:08:00,41.0,23.3,29.59,South,180,0.0,0.0,49,0.00,CLR,OVC,0.00,WeatherDisplay:10.37,2013-11-15 00:08:00,
2013-11-14 19:13:00,41.0,23.3,29.59,South,180,0.0,0.0,49,0.00,CLR,OVC,0.00,WeatherDisplay:10.37,2013-11-15 00:13:00,
2013-11-14 19:18:00,41.0,23.8,29.59,WSW,247,0.0,0.0,50,0.00,CLR,OVC,0.00,WeatherDisplay:10.37,2013-11-15 00:18:00,
2013-11-14 19:23:00,40.0,22.8,29.59,WSW,247,0.0,0.0,50,0.00,CLR,OVC,0.00,WeatherDisplay:10.37,2013-11-15 00:23:00,
2013-11-14 19:28:00,40.0,23.3,29.59,WSW,247,0.0,0.0,51,0.00,CLR,OVC,0.00,WeatherDisplay:10.37,2013-11-15 00:28:00,
2013-11-14 19:33:00,40.0,23.3,29.59,WSW,247,0.0,0.0,51,0.00,CLR,OVC,0.00,WeatherDisplay:10.37,2013-11-15 00:33:00,
2013-11-14 19:38:00,40.0,23.3,29.59,WSW,247,0.0,0.0,51,0.00,CLR,OVC,0.00,WeatherDisplay:10.37,2013-11-15 00:38:00,
2013-11-14 19:43:00,40.0,23.3,29.58,WSW,247,0.0,0.0,51,0.00,CLR,OVC,0.00,WeatherDisplay:10.37,2013-11-15 00:43:00,
2013-11-14 19:48:00,40.0,23.8,29.58,WSW,247,0.0,0.0,52,0.00,CLR,OVC,0.00,WeatherDisplay:10.37,2013-11-15 00:48:00,
2013-11-14 19:54:00,40.0,22.8,29.59,WSW,247,0.0,0.0,50,0.00,CLR,OVC,0.00,WeatherDisplay:10.37,2013-11-15 00:54:00,
2013-11-14 19:58:00,40.0,23.8,29.59,WSW,247,0.0,0.0,52,0.00,CLR,OVC,0.00,WeatherDisplay:10.37,2013-11-15 00:58:00,
2013-11-14 20:04:00,40.0,23.8,29.59,WSW,247,0.0,0.0,52,0.00,CLR,OVC,0.00,WeatherDisplay:10.37,2013-11-15 01:04:00,
2013-11-14 20:09:00,39.0,22.8,29.59,WSW,247,0.0,0.0,52,0.00,CLR,OVC,0.00,WeatherDisplay:10.37,2013-11-15 01:09:00,
2013-11-14 20:14:00,40.0,23.8,29.59,WSW,247,0.0,0.0,52,0.00,CLR,OVC,0.00,WeatherDisplay:10.37,2013-11-15 01:14:00,
2013-11-14 20:19:00,40.0,23.3,29.59,WSW,247,0.0,0.0,51,0.00,CLR,OVC,0.00,WeatherDisplay:10.37,2013-11-15 01:19:00,
2013-11-14 20:24:00,40.0,23.3,29.59,SSE,157,0.0,0.0,51,0.00,CLR,OVC,0.00,WeatherDisplay:10.37,2013-11-15 01:24:00,
2013-11-14 20:29:00,40.0,23.3,29.59,SSE,157,0.0,0.0,51,0.00,CLR,OVC,0.00,WeatherDisplay:10.37,2013-11-15 01:29:00,
2013-11-14 20:34:00,39.0,22.8,29.59,SSE,157,0.0,0.0,52,0.00,CLR,OVC,0.00,WeatherDisplay:10.37,2013-11-15 01:34:00,
2013-11-14 20:39:00,39.0,22.8,29.59,SSE,157,0.0,0.0,52,0.00,CLR,OVC,0.00,WeatherDisplay:10.37,2013-11-15 01:39:00,
2013-11-14 20:44:00,39.0,22.8,29.61,SSE,157,0.0,0.0,52,0.00,CLR,OVC,0.00,WeatherDisplay:10.37,2013-11-15 01:44:00,
2013-11-14 20:49:00,39.0,22.8,29.61,SSE,157,0.0,0.0,52,0.00,CLR,OVC,0.00,WeatherDisplay:10.37,2013-11-15 01:49:00,
2013-11-14 20:54:00,39.0,22.8,29.60,SSW,202,0.0,0.0,52,0.00,CLR,OVC,0.00,WeatherDisplay:10.37,2013-11-15 01:54:00,
2013-11-14 20:59:00,39.0,22.8,29.60,SSW,202,0.0,0.0,52,0.00,CLR,OVC,0.00,WeatherDisplay:10.37,2013-11-15 01:59:00,
2013-11-14 21:04:00,39.0,22.8,29.61,SSW,202,0.0,0.0,52,0.00,CLR,OVC,0.00,WeatherDisplay:10.37,2013-11-15 02:04:00,
2013-11-14 21:09:00,39.0,22.8,29.61,SSW,202,0.0,0.0,52,0.00,CLR,OVC,0.00,WeatherDisplay:10.37,2013-11-15 02:09:00,
2013-11-14 21:14:00,38.0,22.4,29.60,SSW,202,0.0,0.0,53,0.00,CLR,OVC,0.00,WeatherDisplay:10.37,2013-11-15 02:14:00,
2013-11-14 21:19:00,38.0,22.4,29.60,SSW,202,0.0,0.0,53,0.00,CLR,OVC,0.00,WeatherDisplay:10.37,2013-11-15 02:19:00,
2013-11-14 21:24:00,38.0,22.8,29.60,SSW,202,0.0,0.0,54,0.00,CLR,OVC,0.00,WeatherDisplay:10.37,2013-11-15 02:24:00,
2013-11-14 21:29:00,38.0,22.8,29.60,SSW,202,0.0,0.0,54,0.00,CLR,OVC,0.00,WeatherDisplay:10.37,2013-11-15 02:29:00,
2013-11-14 21:34:00,38.0,22.8,29.60,SSW,202,0.0,0.0,54,0.00,CLR,OVC,0.00,WeatherDisplay:10.37,2013-11-15 02:34:00,
2013-11-14 21:39:00,38.0,22.8,29.60,SSW,202,0.0,0.0,54,0.00,CLR,OVC,0.00,WeatherDisplay:10.37,2013-11-15 02:39:00,
2013-11-14 21:44:00,38.0,22.8,29.59,SSW,202,0.0,0.0,54,0.00,CLR,OVC,0.00,WeatherDisplay:10.37,2013-11-15 02:44:00,
2013-11-14 21:49:00,38.0,23.3,29.59,SSW,202,0.0,0.0,55,0.00,CLR,OVC,0.00,WeatherDisplay:10.37,2013-11-15 02:49:00,
2013-11-14 21:54:00,38.0,23.7,29.60,SSW,202,0.0,0.0,56,0.00,CLR,OVC,0.00,WeatherDisplay:10.37,2013-11-15 02:54:00,
2013-11-14 21:59:00,37.0,22.3,29.60,SSW,202,0.0,0.0,55,0.00,CLR,OVC,0.00,WeatherDisplay:10.37,2013-11-15 02:59:00,
2013-11-14 22:04:00,37.0,22.7,29.59,SSW,202,0.0,0.0,56,0.00,CLR,OVC,0.00,WeatherDisplay:10.37,2013-11-15 03:04:00,
2013-11-14 22:09:00,37.0,22.7,29.59,SSW,202,0.0,0.0,56,0.00,CLR,OVC,0.00,WeatherDisplay:10.37,2013-11-15 03:09:00,
2013-11-14 22:14:00,37.0,22.7,29.60,SSW,202,0.0,0.0,56,0.00,CLR,OVC,0.00,WeatherDisplay:10.37,2013-11-15 03:14:00,
2013-11-14 22:19:00,37.0,22.7,29.60,SSW,202,0.0,0.0,56,0.00,CLR,OVC,0.00,WeatherDisplay:10.37,2013-11-15 03:19:00,
2013-11-14 22:24:00,37.0,23.2,29.60,SSW,202,0.0,0.0,57,0.00,CLR,OVC,0.00,WeatherDisplay:10.37,2013-11-15 03:24:00,
2013-11-14 22:29:00,37.0,23.2,29.60,SSW,202,0.0,0.0,57,0.00,CLR,OVC,0.00,WeatherDisplay:10.37,2013-11-15 03:29:00,
2013-11-14 22:34:00,37.0,23.2,29.61,SSW,202,0.0,0.0,57,0.00,CLR,OVC,0.00,WeatherDisplay:10.37,2013-11-15 03:34:00,
2013-11-14 22:39:00,37.0,23.2,29.61,SSW,202,0.0,0.0,57,0.00,CLR,OVC,0.00,WeatherDisplay:10.37,2013-11-15 03:39:00,
2013-11-14 22:44:00,37.0,23.2,29.61,SSW,202,0.0,0.0,57,0.00,CLR,OVC,0.00,WeatherDisplay:10.37,2013-11-15 03:44:00,
2013-11-14 22:49:00,36.0,23.0,29.61,SSW,202,0.0,0.0,59,0.00,CLR,OVC,0.00,WeatherDisplay:10.37,2013-11-15 03:49:00,
2013-11-14 22:54:00,36.0,23.4,29.61,SSW,202,0.0,0.0,60,0.00,CLR,OVC,0.00,WeatherDisplay:10.37,2013-11-15 03:54:00,
2013-11-14 22:59:00,35.0,22.5,29.61,SSW,202,0.0,0.0,60,0.00,CLR,OVC,0.00,WeatherDisplay:10.37,2013-11-15 03:59:00,
2013-11-14 23:04:00,35.0,22.9,29.61,SSW,202,0.0,0.0,61,0.00,CLR,OVC,0.00,WeatherDisplay:10.37,2013-11-15 04:04:00,
2013-11-14 23:09:00,35.0,22.9,29.61,SSW,202,0.0,0.0,61,0.00,CLR,OVC,0.00,WeatherDisplay:10.37,2013-11-15 04:09:00,
2013-11-14 23:14:00,34.0,22.3,29.60,SSW,202,0.0,0.0,62,0.00,CLR,OVC,0.00,WeatherDisplay:10.37,2013-11-15 04:14:00,
2013-11-14 23:20:00,34.0,23.1,29.60,SSW,202,0.0,0.0,64,0.00,CLR,OVC,0.00,WeatherDisplay:10.37,2013-11-15 04:20:00,
2013-11-14 23:25:00,34.0,23.1,29.61,SSW,202,0.0,0.0,64,0.00,CLR,OVC,0.00,WeatherDisplay:10.37,2013-11-15 04:25:00,
2013-11-14 23:30:00,34.0,22.7,29.61,SSW,202,0.0,0.0,63,0.00,CLR,OVC,0.00,WeatherDisplay:10.37,2013-11-15 04:30:00,
2013-11-14 23:35:00,35.0,23.3,29.60,SSW,202,0.0,0.0,62,0.00,CLR,OVC,0.00,WeatherDisplay:10.37,2013-11-15 04:35:00,
2013-11-14 23:40:00,35.0,23.3,29.60,SSW,202,0.0,0.0,62,0.00,CLR,OVC,0.00,WeatherDisplay:10.37,2013-11-15 04:40:00,
2013-11-14 23:45:00,35.0,23.3,29.59,SSW,202,0.0,0.0,62,0.00,CLR,OVC,0.00,WeatherDisplay:10.37,2013-11-15 04:45:00,
2013-11-14 23:50:00,35.0,23.3,29.59,SSW,202,0.0,0.0,62,0.00,CLR,OVC,0.00,WeatherDisplay:10.37,2013-11-15 04:50:00,
2013-11-14 23:55:00,35.0,23.3,29.60,SSW,202,0.0,0.0,62,0.00,CLR,OVC,0.00,WeatherDisplay:10.37,2013-11-15 04:55:00,